Manhattan, KS

5:59 PM CDT on April 23, 2017 (GMT -0500)
Manhattan Regional

Weather History for KMHK - February, 2013

Change the Weather History Date:

Saturday, February 9, 2013

  Actual Average Record
Temperature  
Mean Temperature 43 °F 32 °F  
Max Temperature 55 °F 44 °F 64 °F (2000)
Min Temperature 31 °F 20 °F -5 °F (2011)
Degree Days  
Heating Degree Days 22 33  
Month to date heating degree days 245 308  
Since 1 July heating degree days 3175 3574  
Cooling Degree Days 0 0  
Month to date cooling degree days 0 0  
Year to date cooling degree days 0 0  
Moisture  
Dew Point 35 °F    
Average Humidity 72    
Maximum Humidity 85    
Minimum Humidity 59    
Precipitation  
Precipitation T in 0.04 in 0.40 in (1998)
Month to date precipitation 0.62 0.31  
Year to date precipitation 1.31 0.96  
Sea Level Pressure  
Sea Level Pressure 29.91 in    
Wind  
Wind Speed 11 mph (SSE)    
Max Wind Speed 23 mph    
Max Gust Speed 30 mph    
Visibility 9 miles    
Events Rain , Thunderstorm    
T = Trace of Precipitation, MM = Missing Value Source: NWS Daily Summary

Daily Weather History Graph

Daily Weather History Graph

Search for Another Location

Airport or City:

Trip Planner

Search our weather history database for the weather conditions in past years. The results will help you decide how hot, cold, wet, or windy it might be!

Date:

Astronomy

Feb. 09, 2013 Rise Set
Actual Time 7:25 AM CST 5:57 PM CST
Civil Twilight 6:57 AM CST 6:25 PM CST
Nautical Twilight 6:25 AM CST 6:56 PM CST
Astronomical Twilight 5:54 AM CST 7:27 PM CST
Moon 6:37 AM CST (2/9) 5:41 PM CST (2/9)
Length of Visible Light 11h 27m
Length of Day
10h 32m
Waning Crescent, 0% of the Moon is Illuminated
Feb 9
Waning Crescent
Feb 10
New
Feb 17
First Quarter
Feb 25
Full
Mar 4
Last Quarter

Hourly Weather History & Observations

Time (CST) Temp. Windchill Dew Point Humidity Pressure Visibility Wind Dir Wind Speed Gust Speed Precip Events Conditions
12:52 AM 32.0 °F 27.5 °F 28.0 °F 85% 30.18 in 8.0 mi East 4.6 mph - N/A   Clear
1:52 AM 33.1 °F 28.7 °F 28.9 °F 85% 30.16 in 8.0 mi East 4.6 mph - N/A   Clear
2:52 AM 32.0 °F 27.5 °F 28.9 °F 88% 30.15 in 9.0 mi East 4.6 mph - N/A   Clear
3:52 AM 33.1 °F 27.7 °F 28.9 °F 85% 30.12 in 10.0 mi SE 5.8 mph - N/A   Clear
4:52 AM 33.1 °F 27.7 °F 28.9 °F 85% 30.10 in 9.0 mi East 5.8 mph - N/A   Clear
5:52 AM 33.1 °F 30.0 °F 28.9 °F 85% 30.09 in 9.0 mi East 3.5 mph - N/A   Clear
6:52 AM 36.0 °F 30.3 °F 30.0 °F 79% 30.09 in 10.0 mi South 6.9 mph - N/A   Clear
7:52 AM 36.0 °F 30.3 °F 30.9 °F 82% 30.09 in 10.0 mi South 6.9 mph - N/A   Clear
8:52 AM 37.9 °F 33.5 °F 33.1 °F 83% 30.08 in 10.0 mi South 5.8 mph - N/A   Clear
9:52 AM 41.0 °F 35.2 °F 34.0 °F 76% 30.06 in 10.0 mi South 9.2 mph - N/A   Clear
10:52 AM 46.0 °F 39.9 °F 36.0 °F 68% 30.02 in 10.0 mi South 13.8 mph 26.5 mph N/A   Clear
11:52 AM 50.0 °F - 37.9 °F 63% 29.99 in 10.0 mi South 17.3 mph - N/A   Clear
12:52 PM 53.1 °F - 39.0 °F 59% 29.94 in 10.0 mi South 19.6 mph 28.8 mph N/A   Clear
1:52 PM 53.1 °F - 39.0 °F 59% 29.89 in 10.0 mi SSE 17.3 mph - N/A   Partly Cloudy
2:52 PM 51.1 °F - 37.9 °F 61% 29.87 in 10.0 mi SSE 16.1 mph 23.0 mph N/A   Mostly Cloudy
3:52 PM 50.0 °F - 37.0 °F 61% 29.84 in 10.0 mi South 13.8 mph 23.0 mph N/A   Overcast
4:52 PM 46.0 °F 39.9 °F 37.0 °F 71% 29.83 in 10.0 mi SSE 13.8 mph 21.9 mph 0.00 in Rain Light Rain
5:52 PM 45.0 °F 38.9 °F 36.0 °F 71% 29.78 in 10.0 mi SE 12.7 mph 24.2 mph 0.00 in Rain Light Rain
6:52 PM 44.1 °F 37.1 °F 36.0 °F 73% 29.78 in 10.0 mi SSE 15.0 mph 21.9 mph N/A   Overcast
7:38 PM 42.8 °F 35.4 °F 35.6 °F 76% 29.77 in 10.0 mi SSE 15.0 mph 21.9 mph N/A   Overcast
7:52 PM 43.0 °F 37.2 °F 36.0 °F 76% 29.78 in 10.0 mi SSE 10.4 mph - N/A   Overcast
8:29 PM 42.8 °F 36.2 °F 37.4 °F 81% 29.73 in 6.0 mi SSE 12.7 mph - 0.00 in Rain Light Rain
8:39 PM 42.8 °F 36.6 °F 37.4 °F 81% 29.72 in 6.0 mi SSE 11.5 mph - 0.00 in   Overcast
8:52 PM 42.1 °F 36.1 °F 37.9 °F 85% 29.74 in 6.0 mi SSE 10.4 mph 19.6 mph 0.00 in   Overcast
9:24 PM 42.8 °F 35.4 °F 37.4 °F 81% 29.71 in 9.0 mi SSE 15.0 mph 20.7 mph N/A   Overcast
9:52 PM 42.1 °F 34.2 °F 37.9 °F 85% 29.72 in 9.0 mi SSE 16.1 mph 23.0 mph N/A   Overcast
10:52 PM 43.0 °F 35.1 °F 37.9 °F 82% 29.67 in 8.0 mi South 17.3 mph 26.5 mph N/A   Overcast
11:41 PM 42.8 °F 35.1 °F 39.2 °F 87% 29.69 in 8.0 mi South 16.1 mph 21.9 mph N/A   Overcast
11:52 PM 43.0 °F 36.4 °F 39.9 °F 89% 29.68 in 6.0 mi South 12.7 mph 20.7 mph 0.00 in Rain , Thunderstorm Light Rain